Total_Precipitation_Accumulation
1.72 2.18 2.73 3.57 4.65 5.56 5.83 5.33 4.83 4.49 4.07 3.67 3.10 2.74 2.71 2.62 2.33 2.05 1.77 1.70 1.66 1.74 1.84 1.65 1.77 1.66 1.70 1.74 1.78 1.89 1.88 1.83 1.90 2.07 2.04 1.75 1.53 1.51 1.49 1.57 1.77 1.66 1.61
1.89 2.60 3.63 4.22 4.45 4.58 4.35 4.01 3.75 3.55 3.09 2.74 2.51 2.27 2.26 2.06 1.87 1.78 1.76 1.50 1.44 1.51 1.48 1.63 1.60 1.56 1.72 1.75 1.71 1.77 1.74 1.62 1.68 1.92 2.14 1.86 1.69 1.40 1.08 1.22 1.23 1.32 1.58
2.07 2.87 3.44 3.57 3.28 2.97 2.87 2.83 2.90 2.65 2.52 2.48 2.37 2.28 2.29 2.06 1.79 1.69 1.65 1.41 1.24 1.26 1.33 1.38 1.41 1.54 1.53 1.65 1.70 1.60 1.64 1.67 1.63 1.68 1.99 1.96 1.80 1.54 1.14 1.00 1.06 1.21 1.40
1.59 2.01 2.25 2.15 2.26 2.40 2.42 2.54 2.63 2.38 2.35 2.30 2.02 1.93 1.83 1.74 1.60 1.54 1.52 1.59 1.34 1.18 1.15 1.21 1.27 1.39 1.36 1.55 1.41 1.48 1.67 1.72 1.58 1.53 1.49 1.56 1.62 1.71 1.49 1.18 1.04 1.13 1.21
0.98 1.09 1.22 1.38 1.59 1.70 1.87 2.17 2.41 2.35 2.18 2.03 1.97 2.03 1.89 1.83 1.80 1.81 1.77 1.74 1.59 1.34 1.19 1.26 1.32 1.36 1.30 1.33 1.33 1.60 1.61 1.54 1.47 1.45 1.48 1.49 1.48 1.47 1.51 1.39 1.22 1.15 0.99
0.84 0.88 0.94 1.08 1.25 1.37 1.54 1.79 2.09 2.23 2.16 2.01 1.93 1.96 2.02 1.96 1.86 1.83 1.78 1.59 1.48 1.41 1.27 1.28 1.32 1.27 1.24 1.22 1.22 1.43 1.46 1.50 1.54 1.48 1.38 1.46 1.44 1.42 1.53 1.36 1.19 1.09 0.80
0.87 0.94 0.90 0.87 0.93 1.08 1.22 1.32 1.50 1.77 1.90 1.87 1.85 1.86 1.99 1.90 1.71 1.58 1.48 1.42 1.24 1.15 1.18 1.20 1.24 1.13 1.14 1.24 1.39 1.41 1.39 1.45 1.48 1.39 1.31 1.30 1.18 1.26 1.35 1.26 1.08 1.06 0.87
0.77 0.80 0.78 0.74 0.72 0.80 0.97 1.09 1.28 1.47 1.68 1.70 1.68 1.69 1.75 1.69 1.57 1.55 1.32 1.23 1.18 1.11 1.15 1.17 1.13 1.12 1.16 1.18 1.42 1.33 1.31 1.36 1.32 1.21 1.41 1.35 1.12 1.24 1.30 1.35 1.49 1.37 1.22
0.58 0.68 0.73 0.79 0.77 0.74 0.84 0.97 1.21 1.41 1.59 1.69 1.72 1.65 1.63 1.63 1.62 1.56 1.36 1.19 1.28 1.21 1.27 1.25 1.21 1.22 1.32 1.43 1.54 1.42 1.41 1.45 1.29 1.28 1.48 1.43 1.28 1.29 1.26 1.39 1.60 1.73 1.52
0.59 0.78 0.91 0.86 0.71 0.60 0.67 0.83 1.04 1.30 1.47 1.62 1.62 1.51 1.67 1.63 1.62 1.54 1.43 1.30 1.29 1.28 1.34 1.33 1.28 1.34 1.40 1.50 1.57 1.45 1.50 1.48 1.40 1.44 1.57 1.56 1.44 1.45 1.41 1.44 1.59 1.81 1.79
0.67 0.80 0.98 0.94 0.69 0.56 0.58 0.70 0.92 1.16 1.27 1.36 1.43 1.41 1.46 1.43 1.45 1.47 1.45 1.43 1.41 1.36 1.34 1.34 1.34 1.33 1.39 1.46 1.53 1.45 1.46 1.43 1.44 1.45 1.50 1.50 1.62 1.66 1.63 1.73 1.76 1.83 1.97
0.74 0.66 0.74 0.89 0.83 0.71 0.62 0.72 0.90 1.04 1.08 1.14 1.16 1.21 1.32 1.37 1.34 1.31 1.36 1.42 1.36 1.30 1.34 1.38 1.34 1.24 1.31 1.44 1.45 1.40 1.44 1.48 1.44 1.51 1.67 1.60 1.65 1.73 1.80 1.94 1.86 1.91 2.15
0.56 0.54 0.62 0.72 0.85 0.81 0.70 0.78 0.88 0.97 1.04 0.99 0.99 1.04 1.12 1.15 1.16 1.19 1.27 1.35 1.38 1.37 1.34 1.31 1.23 1.22 1.26 1.32 1.35 1.45 1.56 1.61 1.64 1.72 1.81 1.84 1.98 1.90 1.92 1.97 1.95 2.00 2.22
0.60 0.55 0.57 0.72 0.82 0.86 0.81 0.79 0.87 1.02 1.05 0.99 1.07 1.18 1.22 1.24 1.25 1.26 1.35 1.44 1.49 1.46 1.46 1.45 1.48 1.49 1.44 1.42 1.47 1.58 1.66 1.68 1.75 1.89 1.91 1.93 1.98 2.03 2.13 2.13 2.22 2.36 2.53
0.60 0.58 0.64 0.78 0.85 0.98 1.00 0.94 0.93 0.99 1.09 1.18 1.27 1.45 1.60 1.61 1.51 1.51 1.62 1.71 1.75 1.70 1.82 1.80 1.77 1.80 1.75 1.59 1.67 1.74 1.73 1.83 1.78 1.84 1.88 1.85 1.93 1.99 2.09 2.06 2.23 2.50 2.70
0.56 0.52 0.62 0.80 0.81 0.81 0.86 0.85 0.86 0.91 0.94 1.04 1.16 1.38 1.56 1.63 1.63 1.68 1.80 1.84 1.83 1.93 1.99 1.93 1.92 1.91 1.69 1.80 1.86 1.83 1.89 1.94 1.90 1.91 1.92 1.89 1.86 1.79 1.82 1.89 2.00 2.16 2.37
0.55 0.56 0.59 0.69 0.85 0.78 0.75 0.83 0.88 0.96 1.05 1.20 1.36 1.48 1.59 1.68 1.70 1.70 1.79 1.86 1.87 1.86 1.92 1.95 1.96 1.86 1.81 1.82 1.69 1.69 1.68 1.78 1.85 1.89 1.89 1.73 1.61 1.64 1.56 1.69 1.73 1.72 1.79
0.75 0.79 0.85 0.86 0.93 0.92 0.89 0.94 0.97 1.04 1.10 1.19 1.31 1.41 1.58 1.70 1.78 1.90 1.97 2.05 2.12 2.14 2.14 2.07 2.03 2.00 1.89 1.78 1.63 1.65 1.52 1.56 1.61 1.66 1.70 1.71 1.62 1.60 1.67 1.66 1.55 1.40 1.39
0.82 0.88 0.94 0.97 0.96 1.04 1.12 1.21 1.20 1.26 1.32 1.37 1.53 1.67 1.77 1.92 1.99 2.02 2.13 2.24 2.33 2.30 2.27 2.22 2.24 2.26 2.25 2.15 1.84 1.72 1.59 1.64 1.65 1.64 1.65 1.65 1.52 1.59 1.53 1.49 1.48 1.39 1.32
0.91 0.97 0.94 0.93 1.03 1.11 1.20 1.31 1.44 1.56 1.66 1.69 1.76 1.87 2.02 2.10 2.09 2.09 2.14 2.15 2.19 2.20 2.20 2.13 2.19 2.17 2.19 2.24 1.92 1.70 1.52 1.57 1.61 1.68 1.69 1.71 1.56 1.61 1.56 1.52 1.54 1.45 1.36
1.09 1.06 1.03 1.05 1.08 1.09 1.16 1.30 1.47 1.63 1.70 1.73 1.80 1.91 2.02 2.21 2.30 2.31 2.19 2.04 2.01 2.05 2.13 2.12 2.17 2.18 2.15 2.10 1.75 1.59 1.53 1.60 1.63 1.58 1.55 1.59 1.61 1.46 1.36 1.31 1.30 1.37 1.40
1.19 1.18 1.16 1.12 1.12 1.18 1.25 1.36 1.51 1.60 1.67 1.70 1.79 1.88 1.92 1.94 2.00 2.22 2.28 2.19 2.09 2.02 2.04 2.11 2.08 2.03 1.99 1.87 1.56 1.30 1.27 1.36 1.41 1.42 1.41 1.42 1.39 1.21 1.09 0.97 0.96 1.02 1.02
1.09 1.12 1.16 1.19 1.23 1.28 1.35 1.50 1.57 1.65 1.67 1.77 1.91 2.02 2.01 1.98 1.97 2.01 2.08 2.04 1.97 1.84 1.72 1.79 1.84 1.84 1.85 1.74 1.47 1.20 1.10 1.12 1.10 1.19 1.39 1.40 1.26 1.15 1.08 1.03 0.95 0.86 0.80
1.10 1.16 1.16 1.20 1.33 1.44 1.56 1.59 1.57 1.68 1.85 1.92 1.94 1.97 1.96 1.90 1.93 2.04 1.99 1.93 1.92 1.81 1.62 1.67 1.77 1.83 1.84 1.72 1.51 1.35 1.27 1.23 1.18 1.21 1.36 1.42 1.39 1.31 1.22 1.12 0.96 0.80 0.78
1.05 1.13 1.21 1.26 1.34 1.42 1.54 1.63 1.66 1.72 1.82 1.77 1.67 1.70 1.75 1.73 1.72 1.84 1.90 1.74 1.70 1.76 1.69 1.77 1.94 1.90 1.75 1.60 1.44 1.27 1.26 1.27 1.32 1.33 1.44 1.56 1.58 1.54 1.42 1.26 1.10 0.97 0.92
0.99 1.07 1.15 1.25 1.32 1.38 1.44 1.47 1.53 1.63 1.73 1.77 1.69 1.63 1.60 1.63 1.67 1.67 1.69 1.68 1.48 1.47 1.43 1.48 1.57 1.62 1.52 1.40 1.29 1.20 1.17 1.12 1.13 1.15 1.33 1.60 1.67 1.66 1.63 1.50 1.31 1.16 1.07